Flag for Russia Weather past 2 weeks in Khanty-Mansiysk, Russia

Now
21 °F

Snow flurries. Mostly cloudy.


Feels Like: 14 °F
Forecast: 22 / 25 °F
Wind: 6 mph from South

Location: Hanty-Mansijsk

Current Time: Dec 20, 2014 at 4:57:26 AM

Latest Report: Dec 20, 2014 at 4:30 AM


Visibility: 2 mi

Pressure: 29.86 "Hg

Humidity: 93%

Dew point: 19 °F

Location of Khanty-MansiyskLocation

Historic Weather in Khanty-Mansiysk — Graph

°F

Khanty-Mansiysk temperature yesterday

Maximum temperature yesterday: 25 °F (at 8:30 AM)
Minimum temperature yesterday: 18 °F (at 1:00 AM)
Average temperature yesterday: 21 °F

Past Weeks' High & Low Weather Summary

 TemperatureHumidityPressure
High28 °F (Dec 14, 9:30 PM)93% (Dec 8, 12:30 PM)30.45 "Hg (Dec 8, 12:30 PM)
Low-29 °F (Dec 5, 4:00 AM)61% (Dec 5, 3:30 AM)29.71 "Hg (Dec 8, 12:00 AM)
Average10 °F82%30.11 "Hg
* Reported Dec 5 3:30 AM — Dec 20 3:30 AM, Khanty-Mansiysk, Weather by CustomWeather, © 2014

Note: Actual official high and low records may vary slightly from our data, if they occured in-between our weather recording intervals... More about our weather records

Advertising

Khanty-Mansiysk weather history for previous 24 hours

 ConditionsComfort  
Time TempWeatherWind HumidityBarometerVisibility
3:30 AM
Dec 20
21 °FSnow flurries. Mostly cloudy.8 mph93%29.86 "Hg2 mi
3:00 AM21 °FSnow flurries. Mostly cloudy.8 mph93%29.86 "Hg1 mi
2:30 AM21 °FSnow showers. Mostly cloudy.10 mph93%29.86 "Hg1 mi
1:30 AM21 °FHeavy snow. Ice fog.10 mph93%29.86 "Hg1 mi
1:00 AM21 °FSnow showers. Ice fog.10 mph86%29.86 "Hg1 mi
12:30 AM21 °FSnow flurries. Mostly cloudy.10 mph86%29.86 "Hg3 mi
12:00 AM21 °FLight snow. Mostly cloudy.8 mph86%29.86 "Hg2 mi
11:30 PM
Dec 19
21 °FLight snow. Mostly cloudy.10 mph86%29.89 "Hg2 mi
11:00 PM21 °FLight snow. Mostly cloudy.10 mph86%29.89 "Hg2 mi
10:30 PM21 °FLight snow. Mostly cloudy.10 mph86%29.89 "Hg4 mi
10:00 PM21 °FLight snow. Mostly cloudy.10 mph86%29.89 "Hg5 mi
9:30 PM21 °FLight snow. Mostly cloudy.8 mph86%29.89 "Hg3 mi
9:00 PM21 °FLight snow. Mostly cloudy.8 mph80%29.86 "Hg2 mi
8:30 PM19 °FMostly cloudy.10 mph86%29.86 "Hg5 mi
8:00 PM19 °FMostly cloudy.10 mph86%29.86 "Hg6 mi
7:30 PM19 °FLight snow. Mostly cloudy.10 mph86%29.89 "Hg6 mi
6:00 PM19 °FLight snow. Mostly cloudy.8 mph86%29.89 "Hg1 mi
5:30 PM19 °FSnow. Ice fog.8 mph79%29.89 "Hg1 mi
4:00 PM19 °FLight snow. Mostly cloudy.8 mph79%29.89 "Hg1 mi
3:30 PM19 °FMore clouds than sun.10 mph79%29.89 "Hg6 mi
2:30 PM21 °FLight snow. More clouds than sun.10 mph80%29.89 "Hg4 mi
2:00 PM21 °FMore clouds than sun.10 mph80%29.89 "Hg6 mi
1:30 PM23 °FMore clouds than sun.13 mph80%29.89 "HgN/A
1:00 PM23 °FMore clouds than sun.8 mph80%29.89 "HgN/A
12:30 PM23 °FLight snow. More clouds than sun.8 mph80%29.89 "Hg5 mi
12:00 PM25 °FMore clouds than sun.10 mph74%29.89 "HgN/A
11:30 AM25 °FMore clouds than sun.10 mph74%29.89 "Hg6 mi
11:00 AM23 °FMore clouds than sun.10 mph80%29.89 "HgN/A
10:30 AM23 °FMostly cloudy.10 mph80%29.89 "HgN/A
10:00 AM23 °FMostly cloudy.10 mph86%29.89 "HgN/A
9:30 AM23 °FPartly cloudy.10 mph86%29.89 "HgN/A
9:00 AM25 °FPartly cloudy.13 mph80%29.89 "HgN/A
8:30 AM25 °FPartly cloudy.15 mph80%29.89 "HgN/A
8:00 AM23 °FPartly cloudy.15 mph86%29.89 "HgN/A
7:30 AM23 °FPartly cloudy.17 mph80%29.89 "HgN/A
7:00 AM23 °FPartly cloudy.17 mph80%29.86 "HgN/A
6:30 AM23 °FMostly cloudy.20 mph80%29.86 "Hg6 mi
6:00 AM21 °FMostly cloudy.17 mph86%29.86 "Hg6 mi
5:30 AM21 °FMostly cloudy.15 mph80%29.86 "Hg6 mi
5:00 AM21 °FMostly cloudy.15 mph80%29.86 "HgN/A
4:30 AM21 °FMostly cloudy.15 mph80%29.86 "Hg6 mi
4:00 AM21 °FMostly cloudy.20 mph80%29.86 "Hg6 mi
Weather by CustomWeather, © 2014

See weather overviewHow to use our weather pages